Location: Del Oro Observatory
(38.3044°N, 104.8119°W)
Time: 02:44:25
(UTC-06:00)

Cosmos 1602 Rocket - Visible Passes

Search period start: 28 August 2016 00:00
Search period end: 07 September 2016 00:00
Orbit: 605 x 633 km, 82.5° (Epoch: 27 August)

Date Brightness Start Highest point End Pass type
(mag) Time Alt. Az. Time Alt. Az. Time Alt. Az.
28 Aug 4.6 21:08:32 10° NNW 21:12:49 47° W 21:17:02 10° SSW visible
29 Aug 5.8 21:26:23 10° NW 21:29:59 24° W 21:33:32 10° SW visible
30 Aug 3.9 20:05:23 10° N 20:09:41 47° E 20:13:56 10° SSE visible
30 Aug 6.5 21:45:01 10° WNW 21:47:03 13° W 21:49:05 10° WSW visible
31 Aug 3.6 20:22:35 10° N 20:27:03 88° W 20:31:26 10° S visible
01 Sep 4.8 20:40:05 10° NNW 20:44:18 44° W 20:48:28 10° SSW visible
02 Sep 6.0 20:57:57 10° NW 21:01:27 23° W 21:04:55 10° SW visible
03 Sep 6.7 21:16:44 10° WNW 21:18:31 12° W 21:20:18 10° WSW visible
04 Sep 3.7 19:54:06 10° N 19:58:32 83° W 20:02:54 10° S visible
05 Sep 5.0 20:11:37 10° NNW 20:15:47 41° W 20:19:53 10° SSW visible
06 Sep 6.2 20:29:32 10° NW 20:32:56 22° W 20:36:17 10° SW visible
